Temperature
-0 0 -0 0 -0 -0 0 1 1 2 1 2 1 1 1 1 1 2 2 2 2 2 2 3 3 2 2 2 2 2 2 2 2 2 1 1 1 1 1 1 1 1 1 1
-1 -0 -0 -0 -0 -0 0 0 0 0 1 1 1 1 1 1 1 1 2 2 2 2 2 2 2 2 2 2 2 1 1 1 1 1 1 1 1 1 1 1 0 0 0 0
-1 -2 -0 -0 -0 -1 -1 -1 -1 0 1 -0 -1 -1 0 1 1 1 2 2 2 2 2 2 2 2 2 1 1 1 1 1 1 0 0 0 0 0 0 -0 -0 -0 -0 -0
-2 -1 0 1 -1 -1 -1 -1 -2 -1 -1 -1 -0 0 1 2 2 2 2 2 2 2 2 1 1 1 1 1 1 0 0 0 0 -0 -0 -0 -0 -0 -0 -1 -1 -1 -1 -1
-3 -2 -1 -0 -1 -2 -1 -1 -2 -2 -1 -1 -1 -1 0 1 1 2 2 2 1 1 1 1 1 1 0 0 0 -0 -0 -0 -1 -1 -1 -1 -1 -1 -1 -1 -1 -1 -1 -2
-3 -1 -1 1 -1 -2 -1 -1 -1 -2 -2 -2 -2 -2 -1 1 1 1 1 1 1 1 1 1 0 0 -0 -0 -0 -0 -1 -1 -1 -1 -1 -1 -2 -2 -2 -2 -2 -2 -2 -2
-3 -3 -2 -1 -2 -2 -0 0 -1 -1 -1 -2 -2 -1 0 0 1 1 1 1 0 0 -0 -0 -0 -0 -0 -1 -1 -1 -1 -1 -2 -2 -2 -2 -2 -2 -2 -2 -3 -3 -3 -3
-4 -3 -1 -2 -3 -2 -1 -1 -1 -1 -1 -1 -1 -1 -0 -0 -0 -0 -0 -0 -0 -1 -1 -1 -1 -1 -1 -1 -1 -2 -2 -2 -2 -2 -2 -2 -3 -3 -3 -3 -3 -3 -3 -3
-3 -1 -2 -2 -2 -1 -1 -1 -0 -0 -0 -1 -1 -1 -1 -1 -1 -1 -1 -1 -1 -1 -1 -1 -2 -2 -2 -2 -2 -2 -2 -2 -2 -3 -3 -3 -3 -3 -3 -3 -3 -3 -4 -3
-5 -4 -3 -2 -1 -1 -1 -1 -0 -0 -1 -1 -1 -1 -1 -1 -1 -1 -2 -2 -2 -2 -2 -2 -2 -2 -2 -3 -3 -3 -3 -3 -3 -3 -3 -3 -3 -4 -4 -4 -4 -4 -4 -4
-5 -5 -4 -2 -1 -1 -1 -1 -1 -1 -1 -1 -1 -2 -2 -2 -2 -2 -2 -2 -3 -3 -3 -3 -3 -3 -3 -3 -3 -3 -3 -3 -3 -4 -4 -4 -4 -4 -4 -4 -4 -4 -4 -5
-3 -3 -4 -2 -1 -1 -1 -1 -1 -2 -2 -2 -2 -2 -2 -3 -3 -3 -3 -3 -3 -3 -3 -4 -4 -4 -4 -4 -4 -4 -4 -4 -4 -4 -4 -4 -4 -4 -4 -5 -5 -5 -5 -5
-2 -2 -2 -2 -2 -2 -2 -2 -2 -2 -2 -3 -3 -3 -3 -3 -3 -4 -4 -4 -4 -4 -4 -4 -4 -4 -4 -4 -4 -4 -4 -4 -4 -4 -5 -5 -5 -5 -5 -5 -5 -5 -5 -5
-3 -3 -3 -2 -2 -2 -2 -3 -3 -3 -3 -3 -3 -4 -4 -4 -4 -4 -4 -4 -4 -4 -4 -5 -5 -5 -5 -5 -5 -5 -5 -5 -5 -5 -5 -5 -5 -5 -5 -5 -5 -5 -5 -5
-3 -3 -3 -3 -3 -3 -3 -3 -4 -4 -4 -4 -4 -4 -4 -4 -4 -4 -5 -5 -5 -5 -5 -5 -5 -5 -5 -5 -5 -5 -5 -5 -5 -5 -5 -5 -6 -6 -6 -6 -6 -6 -6 -5
-4 -3 -4 -4 -4 -4 -4 -4 -4 -4 -4 -4 -5 -5 -5 -5 -5 -5 -5 -5 -5 -5 -5 -5 -5 -5 -5 -5 -5 -5 -5 -6 -6 -6 -6 -6 -6 -6 -6 -6 -6 -6 -6 -6
-4 -4 -4 -4 -4 -4 -4 -5 -5 -5 -5 -5 -5 -5 -5 -5 -5 -5 -5 -6 -6 -6 -6 -6 -6 -6 -6 -6 -6 -6 -6 -6 -6 -6 -6 -6 -6 -7 -7 -7 -6 -6 -6 -6
-4 -4 -4 -4 -4 -5 -5 -5 -5 -5 -5 -5 -6 -6 -6 -6 -6 -6 -6 -6 -6 -6 -6 -6 -6 -6 -6 -6 -6 -6 -6 -6 -6 -6 -6 -7 -7 -7 -7 -7 -7 -7 -7 -7
-4 -4 -5 -5 -5 -5 -5 -5 -5 -6 -6 -6 -6 -6 -6 -6 -6 -6 -6 -6 -6 -6 -6 -6 -6 -6 -6 -6 -6 -6 -7 -7 -7 -7 -7 -7 -7 -7 -7 -7 -7 -7 -7 -7
-5 -5 -5 -5 -5 -6 -6 -6 -6 -6 -6 -6 -6 -6 -6 -6 -7 -7 -6 -6 -7 -7 -7 -7 -7 -7 -7 -7 -7 -7 -7 -7 -7 -7 -7 -7 -7 -7 -7 -7 -7 -7 -7 -7
-5 -5 -5 -6 -6 -6 -6 -6 -6 -6 -6 -6 -6 -7 -7 -7 -7 -7 -7 -7 -7 -7 -7 -7 -7 -7 -7 -7 -7 -7 -7 -7 -7 -7 -7 -7 -7 -7 -7 -7 -7 -7 -7 -7
-6 -6 -6 -6 -6 -6 -6 -7 -7 -7 -7 -7 -7 -7 -7 -7 -7 -7 -7 -7 -7 -7 -7 -7 -7 -7 -7 -8 -8 -7 -8 -8 -8 -8 -8 -8 -8 -8 -8 -7 -7 -8 -8 -8
-6 -6 -6 -6 -6 -6 -7 -7 -7 -7 -7 -7 -7 -7 -7 -7 -8 -8 -8 -8 -8 -8 -8 -8 -8 -8 -8 -8 -8 -8 -8 -8 -8 -8 -8 -8 -8 -8 -8 -8 -8 -8 -8 -8
-6 -6 -7 -7 -7 -7 -7 -7 -7 -7 -7 -8 -8 -8 -8 -8 -8 -8 -8 -8 -8 -8 -8 -8 -8 -8 -8 -8 -8 -8 -8 -8 -8 -8 -8 -8 -8 -8 -8 -8 -8 -8 -8 -8
-7 -7 -7 -7 -7 -7 -7 -8 -8 -8 -8 -8 -8 -8 -8 -8 -8 -8 -8 -8 -8 -8 -8 -8 -8 -8 -8 -8 -8 -8 -8 -8 -8 -8 -8 -8 -8 -8 -8 -8 -8 -8 -8 -8
-7 -7 -7 -8 -8 -8 -8 -8 -8 -8 -8 -8 -8 -8 -8 -8 -8 -8 -8 -8 -8 -8 -8 -8 -8 -8 -8 -8 -8 -8 -8 -9 -8 -8 -8 -8 -8 -8 -8 -8 -8 -9 -9 -9
-8 -8 -8 -8 -8 -8 -8 -8 -8 -8 -8 -8 -8 -9 -9 -9 -9 -9 -8 -9 -9 -9 -9 -9 -9 -9 -9 -9 -9 -9 -9 -9 -9 -9 -8 -9 -9 -9 -9 -9 -9 -9 -9 -9
Wind_Speed
4 3 3 5 7 8 9 9 8 8 9 10 7 5 4 3 2 1 1 1 2 2 1 1 1 1 1 1 1 2 2 1 1 1 1 1 1 1 1 1 1 1 0 1
3 2 3 5 8 10 11 9 10 10 12 8 4 2 3 4 3 3 3 3 3 2 2 2 2 2 2 2 2 2 2 1 1 1 1 1 1 0 0 0 0 0 1 1
3 3 3 8 9 11 7 7 8 12 11 4 3 5 6 6 5 5 5 4 4 3 3 3 3 3 3 2 2 2 2 1 1 1 0 0 0 1 0 0 0 0 1 1
1 1 6 7 2 6 8 8 9 8 6 6 7 5 4 5 6 6 5 4 4 4 3 3 2 2 2 2 2 2 2 1 1 1 1 0 1 0 0 0 0 1 1 1
3 3 8 7 3 4 6 6 7 10 9 6 2 2 4 4 5 6 6 5 4 4 3 3 2 2 2 2 2 2 2 2 2 2 1 1 1 1 0 0 1 1 1 1
4 3 7 6 2 2 3 5 5 6 7 5 2 2 5 3 3 3 3 2 2 2 2 2 3 3 3 3 2 3 2 2 2 2 2 2 2 1 1 1 1 1 1 1
5 6 8 5 2 4 4 6 2 4 4 4 5 6 4 3 2 2 2 1 1 2 2 3 3 3 3 3 3 3 2 1 1 2 2 2 2 1 1 1 1 1 2 2
5 5 9 2 5 6 6 1 1 2 3 4 5 4 4 4 3 2 2 1 1 2 1 1 2 3 3 3 2 1 1 1 1 1 2 1 2 1 1 1 1 1 1 2
8 8 3 4 5 3 2 2 2 2 3 3 3 4 4 3 3 2 2 1 1 2 1 1 2 3 3 3 1 1 1 1 1 1 1 1 2 2 1 2 2 2 1 2
5 7 5 5 4 3 2 3 3 2 2 3 3 4 4 3 3 2 2 1 1 1 1 1 1 1 2 2 2 2 2 2 1 1 1 1 2 2 2 2 2 2 2 2
6 6 4 4 5 4 3 3 2 2 2 3 3 3 3 3 3 2 2 1 1 2 2 2 1 1 1 2 2 2 2 2 2 2 2 2 2 2 3 3 4 3 3 3
7 5 5 5 3 2 3 3 3 2 2 2 2 3 3 3 2 2 1 1 1 2 2 2 1 2 2 2 2 2 2 2 2 2 2 2 2 2 3 4 5 6 5 5
5 2 3 3 2 1 2 2 2 2 2 2 2 2 2 2 2 1 1 2 2 3 2 2 2 2 2 2 2 3 3 3 2 2 2 2 2 2 2 3 4 4 5 5
3 2 2 2 2 1 1 1 0 1 1 1 1 1 1 1 1 1 2 2 2 2 2 2 2 3 3 2 2 2 3 3 3 3 3 2 2 2 2 2 2 3 4 5
3 3 3 1 1 1 1 1 1 1 1 2 1 0 1 1 2 2 2 1 1 1 1 2 2 3 2 2 2 2 2 2 2 2 2 2 2 2 2 2 2 3 3 4
1 1 1 1 2 1 1 0 1 2 2 1 1 1 1 1 1 1 1 0 1 2 2 2 3 3 2 2 2 2 2 3 3 2 2 2 2 2 2 3 2 2 3 3
3 2 2 2 2 2 2 2 3 3 2 2 2 1 0 1 1 1 2 1 1 2 3 3 4 3 2 2 2 2 2 2 3 2 2 2 2 3 3 2 2 3 3 4
3 3 3 4 3 3 2 2 2 2 2 2 1 0 0 1 1 2 2 2 2 3 3 3 3 2 2 2 2 2 2 2 2 2 2 2 2 2 2 3 3 3 3 4
1 1 1 2 2 2 2 2 2 1 1 1 1 1 1 2 2 2 1 1 2 3 3 3 3 2 2 2 1 1 1 2 2 2 2 3 3 2 2 2 3 3 3 3
1 1 0 0 0 1 1 1 1 1 1 0 1 0 1 2 1 1 1 2 3 3 3 3 2 2 2 2 2 1 1 2 2 2 2 2 2 2 2 2 3 3 3 3
0 1 1 0 1 1 0 0 0 0 1 0 1 1 2 2 1 1 1 3 3 3 3 3 2 2 2 2 2 1 1 2 2 2 2 2 2 2 2 2 3 3 3 3
0 0 0 1 0 1 1 1 0 0 1 1 1 1 1 1 2 2 2 3 3 4 3 2 2 3 3 2 1 1 2 2 2 2 2 2 2 2 2 3 3 3 3 3
1 1 0 1 1 1 1 1 0 0 0 1 1 1 2 2 2 2 3 3 2 4 3 2 3 4 3 1 1 1 2 2 2 2 2 2 2 2 3 3 3 3 4 4
0 0 0 0 1 1 1 2 1 1 1 1 1 2 2 2 2 2 3 4 5 5 3 3 5 4 3 1 1 1 1 2 2 2 2 2 2 2 3 3 3 3 4 4
0 0 0 1 0 1 1 1 1 1 1 1 2 2 1 1 2 3 3 3 4 4 3 4 4 4 2 1 1 1 2 2 2 2 2 2 2 3 3 3 3 4 4 4
0 0 1 1 1 1 1 0 0 1 1 1 2 2 2 2 2 2 2 3 3 4 3 2 2 3 2 1 1 2 2 2 2 2 2 2 3 3 3 4 4 4 4 4
1 1 1 1 1 0 0 0 1 1 1 1 2 2 2 2 2 2 2 2 2 2 2 2 2 2 2 1 2 2 2 2 2 2 2 2 3 3 3 4 4 4 4 4
Wind_Direction
250 266 225 225 225 206 208 213 220 242 242 252 248 251 271 287 286 269 248 219 207 207 221 201 178 180 182 188 176 160 146 152 195 191 162 157 156 163 147 148 189 200 234 283
272 275 257 253 240 222 225 228 236 255 262 254 249 233 252 252 238 237 247 241 232 218 208 207 203 206 200 201 197 167 162 180 187 135 121 151 169 158 100 76 3 52 290 280
256 305 338 265 231 211 213 212 204 230 245 241 236 233 236 236 230 231 238 243 236 231 222 216 211 202 203 210 187 167 168 174 162 141 126 140 145 108 94 46 50 320 301 286
185 62 243 252 217 202 211 233 220 233 249 236 236 249 248 235 230 236 236 235 238 234 230 221 210 202 198 184 170 168 176 183 176 158 157 142 127 130 63 288 273 272 291 287
157 228 274 286 240 183 194 257 227 227 244 252 264 335 292 250 228 233 233 233 231 224 216 200 199 192 169 166 163 170 193 201 201 188 190 190 203 236 248 233 289 272 280 275
159 198 242 255 213 170 123 283 247 210 232 238 154 243 268 281 249 253 258 249 232 200 179 186 201 173 161 175 179 204 217 218 210 196 197 211 218 232 249 262 269 287 304 294
191 224 261 255 196 130 166 248 258 196 211 197 200 224 268 307 288 271 277 275 198 171 183 201 190 165 173 186 213 226 218 206 205 203 204 211 216 224 206 235 276 296 299 300
174 211 250 197 144 184 217 269 208 202 201 207 238 269 286 292 293 296 302 308 172 172 210 206 176 168 187 219 230 199 179 192 219 224 224 211 191 216 213 198 214 272 292 310
197 218 256 185 201 227 196 220 234 217 222 215 251 269 287 291 288 286 275 258 209 175 202 226 192 179 197 232 198 169 173 210 233 249 248 228 209 215 220 206 212 247 260 283
244 261 255 247 255 268 239 239 256 243 233 211 241 263 276 280 281 282 274 249 206 169 197 244 232 211 208 209 183 169 201 227 234 232 253 246 234 222 218 220 224 236 245 263
246 267 292 270 241 247 255 255 260 269 242 232 238 264 260 265 266 267 277 279 213 202 223 247 251 254 234 206 181 190 216 230 237 238 237 245 246 236 233 230 226 228 234 243
226 222 202 238 241 217 223 247 242 245 284 277 231 245 260 267 267 260 258 263 247 244 241 249 248 262 264 234 200 194 222 232 229 235 238 238 245 279 270 259 262 259 255 257
230 220 211 242 263 222 220 247 241 224 235 265 266 234 239 264 277 273 261 249 239 239 242 249 256 270 277 257 225 211 221 232 232 237 235 235 235 241 277 296 284 277 278 281
232 205 245 243 246 277 247 254 261 296 281 263 266 263 230 269 278 265 261 262 251 238 242 252 262 274 276 255 239 233 231 240 240 238 238 235 236 239 244 260 286 298 299 298
241 220 218 237 292 339 6 65 48 322 324 337 349 299 230 236 260 274 287 304 279 244 253 258 269 281 283 257 247 240 237 238 238 238 239 234 234 239 247 252 261 283 303 308
235 218 194 205 242 271 302 240 244 274 288 295 306 292 271 254 269 300 317 326 207 258 267 265 270 278 278 260 253 247 241 248 247 236 230 232 233 237 244 248 255 266 277 287
165 200 207 228 245 260 256 246 238 251 267 272 278 286 330 26 3 336 329 326 293 281 276 268 273 283 276 253 235 239 243 250 255 252 233 228 231 240 245 245 250 263 271 280
208 212 203 203 213 235 262 263 255 256 253 255 272 179 169 223 261 281 296 321 332 322 302 282 279 283 276 258 232 228 230 235 234 233 235 235 238 239 239 243 252 265 276 282
199 209 217 217 215 210 233 253 262 260 265 231 194 229 250 255 262 274 285 306 305 299 301 302 305 309 287 276 263 226 226 236 247 248 244 250 260 249 244 248 258 266 274 279
46 47 74 350 333 197 232 272 289 308 299 203 187 242 290 286 281 284 291 282 268 269 284 294 295 286 278 274 276 228 227 235 244 255 254 247 250 255 254 258 264 267 270 274
38 35 41 4 329 322 273 218 147 300 315 196 195 236 261 286 285 266 274 298 301 296 288 296 302 283 274 271 263 238 234 238 244 250 249 251 252 256 258 262 267 272 273 276
236 225 296 308 325 332 337 357 123 197 359 355 331 310 303 308 304 290 263 261 285 304 310 291 284 286 291 284 239 235 244 249 253 251 249 253 256 261 264 266 270 275 278 278
232 232 251 288 277 303 345 3 7 161 268 286 290 287 274 273 273 274 295 297 294 302 314 290 294 303 309 307 263 245 250 258 259 251 248 249 253 256 261 267 272 276 279 280
213 305 306 326 86 66 357 334 337 327 288 289 284 271 264 287 300 279 275 300 313 314 314 306 311 315 326 339 303 277 268 268 268 264 262 261 260 262 263 268 274 277 277 278
183 223 66 89 82 289 288 320 349 356 356 339 325 314 292 258 262 293 305 303 315 328 325 320 327 336 348 330 300 282 275 268 264 263 260 265 269 271 272 273 274 278 280 280
151 235 243 231 237 258 268 265 288 316 339 335 331 329 328 322 308 305 313 318 321 330 334 327 326 333 335 325 304 291 286 289 291 286 277 274 274 275 277 278 279 279 280 281
38 31 14 360 341 294 266 255 258 287 288 285 304 315 324 329 332 332 332 332 331 329 327 326 328 328 330 327 321 314 306 299 289 282 280 280 279 277 278 278 282 284 285 285
Height
1490 1488 1489 1488 1488 1490 1490 1487 1487 1480 1479 1471 1471 1471 1470 1470 1469 1469 1469 1469 1469 1470 1471 1473 1474 1474 1475 1477 1478 1479 1479 1480 1481 1481 1482 1482 1482 1482 1483 1483 1483 1482 1482 1482
1491 1488 1488 1487 1484 1485 1483 1483 1482 1479 1474 1467 1468 1469 1469 1468 1468 1468 1467 1467 1468 1468 1469 1470 1471 1472 1473 1474 1475 1476 1476 1477 1478 1478 1478 1479 1479 1479 1479 1479 1479 1479 1479 1478
1491 1492 1486 1483 1477 1478 1477 1476 1477 1474 1467 1465 1467 1466 1465 1465 1466 1465 1465 1465 1466 1466 1467 1468 1469 1470 1471 1471 1472 1473 1473 1474 1474 1475 1475 1476 1476 1476 1476 1476 1476 1475 1475 1475
1494 1492 1488 1470 1469 1469 1470 1469 1469 1466 1463 1462 1462 1462 1462 1462 1463 1462 1463 1464 1464 1464 1465 1466 1467 1468 1468 1469 1469 1470 1470 1471 1472 1472 1472 1472 1473 1473 1473 1473 1472 1472 1471 1471
1495 1492 1482 1470 1467 1467 1468 1466 1462 1462 1461 1461 1461 1461 1460 1460 1460 1460 1460 1461 1461 1462 1462 1463 1464 1465 1465 1466 1466 1467 1467 1468 1469 1469 1469 1469 1470 1470 1470 1469 1469 1469 1468 1468
1493 1487 1480 1465 1463 1463 1466 1465 1457 1457 1458 1459 1460 1464 1459 1457 1457 1457 1458 1458 1458 1459 1459 1460 1461 1462 1462 1463 1463 1464 1465 1465 1466 1466 1466 1467 1467 1467 1467 1466 1466 1466 1465 1465
1489 1486 1474 1463 1462 1463 1468 1460 1455 1454 1455 1457 1458 1458 1456 1455 1455 1455 1455 1455 1455 1456 1456 1457 1458 1459 1459 1460 1460 1461 1462 1462 1463 1463 1464 1464 1464 1464 1464 1463 1463 1463 1462 1462
1485 1483 1471 1460 1461 1462 1458 1454 1453 1453 1454 1454 1454 1454 1454 1453 1453 1452 1452 1452 1452 1452 1453 1454 1455 1455 1456 1456 1457 1458 1459 1459 1460 1461 1461 1461 1461 1461 1461 1461 1460 1460 1460 1459
1468 1463 1457 1456 1455 1454 1454 1454 1453 1453 1453 1453 1453 1452 1451 1451 1450 1450 1449 1449 1450 1450 1450 1451 1452 1453 1453 1454 1454 1455 1456 1456 1457 1457 1458 1458 1458 1458 1457 1457 1457 1457 1457 1456
1465 1457 1454 1454 1453 1452 1453 1453 1452 1452 1452 1451 1450 1450 1449 1449 1448 1447 1447 1447 1447 1447 1447 1448 1449 1450 1450 1451 1452 1452 1452 1453 1454 1454 1454 1455 1455 1454 1454 1454 1454 1454 1453 1453
1460 1454 1452 1450 1450 1450 1451 1451 1450 1450 1450 1449 1448 1448 1447 1446 1445 1445 1445 1445 1445 1445 1445 1445 1446 1447 1448 1448 1449 1449 1449 1450 1450 1451 1451 1451 1451 1451 1451 1451 1451 1451 1451 1451
1452 1448 1449 1448 1447 1448 1448 1448 1448 1448 1447 1447 1446 1445 1445 1444 1443 1443 1443 1443 1443 1443 1443 1443 1444 1444 1445 1445 1446 1446 1446 1447 1447 1447 1447 1447 1447 1448 1448 1448 1448 1448 1448 1448
1445 1444 1445 1445 1445 1446 1445 1445 1445 1445 1445 1444 1444 1443 1442 1442 1441 1441 1440 1440 1440 1440 1441 1441 1441 1442 1442 1443 1443 1443 1443 1443 1444 1444 1444 1444 1444 1444 1444 1445 1445 1445 1445 1444
1442 1443 1442 1443 1443 1443 1443 1443 1443 1443 1442 1442 1441 1441 1440 1439 1439 1438 1438 1438 1438 1438 1438 1438 1439 1439 1440 1440 1440 1440 1440 1441 1441 1441 1441 1441 1442 1442 1442 1441 1441 1441 1442 1441
1440 1440 1440 1440 1441 1441 1441 1440 1440 1440 1440 1439 1439 1438 1438 1437 1436 1436 1436 1436 1436 1436 1436 1436 1436 1437 1437 1437 1437 1437 1437 1437 1438 1438 1438 1438 1439 1439 1439 1439 1438 1438 1438 1438
1437 1437 1438 1438 1438 1438 1439 1438 1438 1437 1437 1437 1436 1436 1435 1435 1434 1434 1434 1434 1433 1433 1433 1434 1434 1434 1434 1434 1434 1434 1434 1435 1435 1435 1435 1435 1435 1435 1435 1435 1435 1435 1435 1434
1435 1435 1435 1436 1436 1436 1436 1436 1436 1435 1435 1434 1434 1434 1433 1433 1432 1432 1432 1432 1432 1432 1432 1432 1432 1432 1432 1432 1432 1432 1432 1432 1432 1432 1432 1432 1432 1432 1432 1432 1432 1432 1432 1432
1433 1433 1434 1434 1434 1434 1434 1434 1434 1434 1433 1433 1432 1432 1431 1431 1430 1430 1430 1430 1430 1430 1430 1430 1430 1430 1430 1429 1429 1429 1429 1429 1429 1429 1429 1429 1429 1429 1429 1429 1429 1429 1429 1429
1431 1432 1432 1432 1432 1432 1432 1432 1432 1432 1432 1431 1431 1430 1430 1430 1429 1429 1428 1428 1427 1427 1428 1428 1428 1428 1427 1427 1427 1427 1427 1427 1427 1427 1427 1427 1427 1427 1427 1426 1426 1426 1426 1425
1430 1431 1431 1431 1431 1431 1431 1431 1430 1430 1430 1430 1429 1429 1428 1428 1428 1427 1427 1426 1426 1426 1426 1426 1425 1425 1425 1425 1425 1425 1425 1424 1424 1424 1424 1424 1424 1424 1424 1424 1423 1423 1423 1422
1430 1430 1430 1430 1430 1430 1430 1429 1429 1429 1428 1428 1428 1427 1427 1427 1426 1426 1425 1424 1425 1425 1424 1424 1423 1423 1423 1423 1423 1422 1422 1422 1422 1422 1422 1421 1421 1421 1421 1421 1420 1420 1420 1419
1429 1429 1429 1429 1429 1428 1428 1428 1428 1427 1427 1427 1427 1426 1425 1425 1425 1424 1424 1424 1423 1423 1422 1422 1421 1421 1421 1421 1420 1420 1420 1420 1419 1419 1419 1419 1419 1418 1418 1418 1418 1417 1416 1416
1428 1428 1428 1428 1427 1427 1427 1427 1427 1426 1426 1426 1425 1425 1424 1424 1423 1422 1422 1422 1421 1421 1420 1420 1419 1419 1419 1418 1418 1418 1417 1417 1417 1417 1417 1417 1416 1416 1416 1415 1415 1414 1413 1413
1427 1427 1427 1426 1426 1426 1426 1426 1425 1425 1425 1425 1424 1424 1423 1422 1422 1422 1421 1420 1419 1418 1418 1418 1417 1417 1416 1416 1416 1415 1415 1415 1415 1415 1415 1414 1414 1413 1413 1412 1412 1411 1410 1409
1426 1426 1426 1425 1425 1425 1424 1424 1424 1424 1424 1423 1423 1423 1422 1422 1421 1420 1419 1418 1417 1417 1416 1416 1415 1415 1414 1414 1414 1413 1413 1413 1413 1413 1412 1412 1411 1411 1410 1410 1409 1408 1407 1406
1425 1424 1424 1424 1424 1423 1423 1423 1422 1422 1422 1422 1421 1421 1421 1420 1420 1419 1418 1417 1416 1415 1415 1414 1413 1413 1413 1412 1412 1412 1412 1411 1411 1410 1410 1410 1409 1408 1408 1407 1406 1405 1404 1403
1423 1423 1423 1423 1422 1422 1422 1422 1421 1421 1421 1420 1420 1420 1419 1419 1418 1417 1416 1416 1415 1414 1413 1413 1412 1412 1411 1411 1411 1410 1410 1409 1409 1408 1408 1407 1406 1406 1405 1404 1403 1402 1401 1400